Weather History for KC75 - December, 2013

Change the Weather History Date:

Sunday, December 22, 2013

  Actual Average (KPIA) Record (KPIA)
Temperature  
Mean Temperature 26 °F 27 °F  
Max Temperature 32 °F 34 °F 58 °F (1933)
Min Temperature 19 °F 19 °F -23 °F (1989)
Degree Days  
Heating Degree Days 39 38  
Month to date heating degree days 777  
Since 1 July heating degree days 1925  
Cooling Degree Days 0 0  
Month to date cooling degree days 0  
Year to date cooling degree days 1039  
Moisture  
Dew Point 26 °F    
Average Humidity 91    
Maximum Humidity 100    
Minimum Humidity 83    
Precipitation  
Precipitation 0.06 in 0.07 in 1.10 in (1932)
Month to date precipitation 1.81  
Year to date precipitation 35.88  
Sea Level Pressure  
Sea Level Pressure 29.88 in    
Wind  
Wind Speed 7 mph (NW)    
Max Wind Speed 13 mph    
Max Gust Speed 18 mph    
Visibility 8 miles    
Events Rain , Snow    
T = Trace of Precipitation, MM = Missing Value Source: NWS Daily Summary

Daily Weather History Graph

Daily Weather History Graph

Search for Another Location

Airport or City:

Trip Planner

Search our weather history database for the weather conditions in past years. The results will help you decide how hot, cold, wet, or windy it might be!

Date:

Astronomy

Dec. 22, 2013 Rise Set
Actual Time 7:19 AM CST 4:33 PM CST
Civil Twilight 6:48 AM CST 5:04 PM CST
Nautical Twilight 6:13 AM CST 5:38 PM CST
Astronomical Twilight 5:40 AM CST 6:12 PM CST
Moon 9:48 PM CST (12/22) 10:13 AM CST (12/22)
Length of Visible Light 10h 15m
Length of Day
9h 13m
Waning Gibbous, 76% of the Moon is Illuminated
Dec 22
Waning Gibbous
Dec 25
Last Quarter
Jan 1
New
Jan 7
First Quarter
Jan 15
Full

Hourly Weather History & Observations

Time (CST) Temp. Windchill Dew Point Humidity Pressure Visibility Wind Dir Wind Speed Gust Speed Precip Events Conditions
12:15 AM 32.5 °F 27.1 °F 32.2 °F 99% 29.62 in 2.5 mi NNE 5.8 mph - N/A Rain Rain
12:35 AM 32.5 °F 27.1 °F 32.2 °F 99% 29.62 in 3.0 mi North 5.8 mph - N/A   Drizzle
12:55 AM 32.4 °F 26.0 °F 32.0 °F 99% 29.62 in 3.0 mi North 6.9 mph - N/A   Drizzle
1:15 AM 32.4 °F 26.9 °F 32.2 °F 99% 29.62 in 2.0 mi North 5.8 mph - N/A Rain Heavy Rain
1:35 AM 32.4 °F 26.0 °F 32.2 °F 99% 29.63 in 2.0 mi North 6.9 mph - N/A Rain Light Rain
1:55 AM 32.4 °F 25.3 °F 32.2 °F 99% 29.62 in 2.5 mi North 8.1 mph - N/A Rain Light Rain
2:15 AM 32.4 °F 25.3 °F 32.2 °F 99% 29.60 in 4.0 mi NNE 8.1 mph - N/A   Drizzle
2:35 AM 32.4 °F 26.0 °F 32.0 °F 99% 29.61 in 4.0 mi NNE 6.9 mph - N/A   Drizzle
2:55 AM 32.5 °F 26.2 °F 32.0 °F 98% 29.60 in 4.0 mi NNE 6.9 mph - N/A Rain Light Rain
3:35 AM 32.5 °F 28.1 °F 32.0 °F 98% 29.62 in 5.0 mi NNE 4.6 mph - N/A   Light Drizzle
3:55 AM 32.4 °F - 32.0 °F 99% 29.63 in 2.5 mi Calm Calm - N/A Rain Light Rain
4:15 AM 32.2 °F - 32.0 °F 99% 29.65 in 1.8 mi Calm Calm - 0.01 in Rain Light Rain
4:35 AM 32.0 °F - 32.0 °F 100% 29.65 in 1.8 mi Calm Calm - 0.04 in Snow Light Snow
4:55 AM 32.0 °F - 32.0 °F 100% 29.65 in 2.5 mi Calm Calm - 0.05 in Rain Light Rain
5:15 AM 32.0 °F - 32.0 °F 100% 29.65 in 2.5 mi Calm Calm - N/A   Drizzle
5:35 AM 32.0 °F 28.7 °F 32.0 °F 100% 29.66 in 2.5 mi NW 3.5 mph - N/A Rain Rain
5:55 AM 32.0 °F 28.7 °F 32.0 °F 100% 29.70 in 1.8 mi West 3.5 mph - 0.01 in Snow Light Snow
6:15 AM 32.0 °F 26.4 °F 32.0 °F 100% 29.72 in 1.8 mi WNW 5.8 mph - N/A Snow Light Snow
6:35 AM 32.0 °F 28.7 °F 32.0 °F 100% 29.71 in 1.5 mi NW 3.5 mph - N/A Snow Light Snow
6:55 AM 31.8 °F 27.3 °F 31.8 °F 100% 29.71 in 2.0 mi NNW 4.6 mph - N/A Snow Light Snow
7:15 AM 31.1 °F 23.7 °F 31.1 °F 100% 29.72 in 3.0 mi NW 8.1 mph - N/A Snow Light Snow
7:35 AM 30.6 °F 23.1 °F 30.0 °F 98% 29.74 in 7.0 mi NW 8.1 mph - N/A   Overcast
7:55 AM 29.8 °F 21.5 °F 28.8 °F 96% 29.76 in 10.0 mi NNW 9.2 mph - N/A   Overcast
8:15 AM 29.3 °F 21.5 °F 28.2 °F 96% 29.75 in 10.0 mi NNW 8.1 mph - N/A   Overcast
8:35 AM 29.3 °F 20.8 °F 27.9 °F 94% 29.76 in 10.0 mi North 9.2 mph - N/A   Overcast
8:55 AM 29.5 °F 21.1 °F 28.0 °F 94% 29.78 in 10.0 mi NNW 9.2 mph - N/A   Overcast
9:15 AM 29.1 °F 18.9 °F 27.0 °F 92% 29.79 in 10.0 mi NNW 12.7 mph - N/A   Overcast
9:35 AM 28.9 °F 19.8 °F 26.8 °F 92% 29.80 in 10.0 mi NNW 10.4 mph 16.1 mph N/A   Overcast
9:55 AM 28.9 °F 20.4 °F 26.6 °F 91% 29.82 in 10.0 mi NNW 9.2 mph - N/A   Overcast
10:15 AM 28.9 °F 21.1 °F 26.6 °F 91% 29.83 in 10.0 mi NNW 8.1 mph - N/A   Overcast
10:35 AM 29.1 °F 21.3 °F 26.2 °F 89% 29.83 in 10.0 mi North 8.1 mph 16.1 mph N/A   Overcast
10:55 AM 28.9 °F 20.4 °F 26.4 °F 90% 29.84 in 10.0 mi NNW 9.2 mph - N/A   Overcast
11:15 AM 28.9 °F 21.1 °F 26.2 °F 90% 29.84 in 10.0 mi NNW 8.1 mph - N/A   Overcast
11:35 AM 29.1 °F 25.4 °F 25.9 °F 88% 29.85 in 10.0 mi NNW 3.5 mph - N/A   Overcast
11:55 AM 29.1 °F 22.1 °F 26.1 °F 88% 29.84 in 10.0 mi NW 6.9 mph - N/A   Overcast
12:15 PM 29.1 °F 22.1 °F 25.9 °F 88% 29.85 in 10.0 mi NNW 6.9 mph - N/A   Overcast
12:35 PM 29.3 °F 21.5 °F 26.2 °F 88% 29.86 in 10.0 mi NW 8.1 mph - N/A   Overcast
12:55 PM 29.3 °F 21.5 °F 26.2 °F 88% 29.88 in 10.0 mi NW 8.1 mph - N/A   Overcast
1:15 PM 28.9 °F 19.2 °F 25.7 °F 88% 29.89 in 10.0 mi NW 11.5 mph - N/A   Overcast
1:35 PM 28.8 °F 18.4 °F 25.3 °F 87% 29.91 in 10.0 mi NW 12.7 mph 17.3 mph N/A   Overcast
1:55 PM 28.4 °F 19.7 °F 25.0 °F 87% 29.92 in 10.0 mi WNW 9.2 mph - N/A   Overcast
2:15 PM 28.4 °F 19.1 °F 24.8 °F 86% 29.92 in 10.0 mi NW 10.4 mph - N/A   Overcast
2:35 PM 28.4 °F 21.2 °F 24.8 °F 86% 29.94 in 10.0 mi NW 6.9 mph - N/A   Overcast
2:55 PM 28.4 °F 22.2 °F 25.2 °F 88% 29.95 in 10.0 mi WNW 5.8 mph - N/A   Overcast
3:15 PM 28.8 °F 19.5 °F 25.3 °F 87% 29.96 in 10.0 mi NW 10.4 mph - N/A   Overcast
3:35 PM 28.4 °F 19.1 °F 25.5 °F 89% 29.97 in 10.0 mi NW 10.4 mph - N/A   Overcast
3:55 PM 28.4 °F 19.7 °F 25.0 °F 87% 29.98 in 10.0 mi WNW 9.2 mph - N/A   Overcast
4:15 PM 28.4 °F 20.4 °F 24.8 °F 86% 30.00 in 10.0 mi WNW 8.1 mph - N/A   Overcast
4:35 PM 28.4 °F 21.2 °F 25.2 °F 88% 30.01 in 10.0 mi WNW 6.9 mph - N/A   Overcast
4:55 PM 28.2 °F 18.9 °F 24.8 °F 87% 30.01 in 10.0 mi WNW 10.4 mph - N/A   Overcast
5:15 PM 28.2 °F 21.0 °F 25.2 °F 88% 30.03 in 10.0 mi WNW 6.9 mph - N/A   Overcast
5:35 PM 27.7 °F 17.6 °F 24.4 °F 88% 30.03 in 10.0 mi WNW 11.5 mph 18.4 mph N/A   Overcast
5:55 PM 27.5 °F 17.4 °F 23.9 °F 86% 30.04 in 10.0 mi WNW 11.5 mph 17.3 mph N/A   Overcast
6:15 PM 27.0 °F 18.0 °F 23.5 °F 87% 30.05 in 10.0 mi WNW 9.2 mph 16.1 mph N/A   Overcast
6:35 PM 26.4 °F 17.3 °F 23.4 °F 88% 30.06 in 10.0 mi WNW 9.2 mph - N/A   Overcast
6:55 PM 26.1 °F 16.2 °F 22.8 °F 88% 30.07 in 10.0 mi WNW 10.4 mph 18.4 mph N/A   Overcast
7:15 PM 25.7 °F 16.4 °F 22.1 °F 86% 30.08 in 10.0 mi West 9.2 mph 18.4 mph N/A   Overcast
7:35 PM 25.5 °F 16.2 °F 21.9 °F 86% 30.09 in 10.0 mi WNW 9.2 mph 16.1 mph N/A   Overcast
7:55 PM 25.2 °F 16.5 °F 21.2 °F 85% 30.11 in 10.0 mi West 8.1 mph - N/A   Overcast
8:15 PM 24.8 °F 14.6 °F 21.0 °F 86% 30.12 in 10.0 mi West 10.4 mph 17.3 mph N/A   Overcast
8:35 PM 24.3 °F 14.6 °F 20.1 °F 84% 30.13 in 10.0 mi WNW 9.2 mph 18.4 mph N/A   Overcast
8:55 PM 23.4 °F 12.8 °F 19.4 °F 85% 30.13 in 10.0 mi West 10.4 mph - N/A   Overcast
9:15 PM 23.0 °F 12.4 °F 19.0 °F 85% 30.13 in 10.0 mi West 10.4 mph - N/A   Overcast
9:35 PM 22.3 °F 10.2 °F 18.3 °F 85% 30.14 in 10.0 mi WNW 12.7 mph 17.3 mph N/A   Overcast
9:55 PM 21.6 °F 9.9 °F 17.2 °F 83% 30.16 in 10.0 mi WNW 11.5 mph 17.3 mph N/A   Overcast
10:15 PM 21.4 °F 11.9 °F 17.6 °F 85% 30.17 in 10.0 mi West 8.1 mph - N/A   Overcast
10:35 PM 21.0 °F 9.9 °F 17.2 °F 85% 30.17 in 10.0 mi West 10.4 mph - N/A   Overcast
10:55 PM 20.7 °F 9.5 °F 16.7 °F 85% 30.18 in 10.0 mi West 10.4 mph 16.1 mph N/A   Overcast
11:15 PM 20.3 °F 9.0 °F 16.5 °F 85% 30.18 in 10.0 mi West 10.4 mph - N/A   Overcast
11:35 PM 20.1 °F 12.3 °F 16.2 °F 85% 30.19 in 10.0 mi West 5.8 mph - N/A   Overcast
11:55 PM 19.8 °F 9.1 °F 15.6 °F 84% 30.21 in 10.0 mi West 9.2 mph - N/A   Overcast